Location: Glendo
(42.5037°N, 105.0248°W)
Time: 18:30:47
(UTC+00:00)

N. Korean satellite - Visible Passes

Search period start: 21 January 2022 00:00
Search period end: 31 January 2022 00:00
Orbit: 447 x 491 km, 97.3° (Epoch: 21 January)

Date Brightness Start Highest point End Pass type
(mag) Time Alt. Az. Time Alt. Az. Time Alt. Az.
21 Jan 9.8 11:25:11 10° NE 11:32:43 - SSE 11:25:24 11° NE visible
21 Jan 8.1 12:57:50 10° NNW 12:59:27 20° NNW 12:59:27 20° NNW visible
22 Jan 7.7 12:28:20 10° N 12:37:21 - SSW 12:30:22 31° N visible
23 Jan 10.2 00:38:26 10° WSW 00:39:17 11° W 00:40:07 10° WNW visible
23 Jan 8.2 11:59:14 10° NNE 12:07:56 - S 12:01:17 29° NE visible
23 Jan 8.5 13:34:12 10° NW 13:35:21 12° WNW 13:35:21 12° WNW visible
24 Jan 9.3 11:30:38 10° NE 11:38:28 - SSE 11:32:12 18° ENE visible
24 Jan 7.7 13:03:37 10° NNW 13:06:15 24° WNW 13:06:15 24° WNW visible
25 Jan 6.7 12:33:59 10° N 12:43:02 - SSW 12:37:10 51° NW visible
26 Jan 7.1 12:04:46 10° NNE 12:13:31 - S 12:08:06 57° ENE visible
27 Jan 8.8 11:36:01 10° NE 11:43:59 - SSE 11:39:02 25° E visible
27 Jan 7.8 13:09:18 10° NNW 13:12:04 21° WNW 13:13:06 19° W visible
28 Jan 9.9 11:08:25 10° ENE 11:09:39 11° E 11:09:59 11° E visible
28 Jan 6.8 12:39:32 10° N 12:43:01 46° WNW 12:44:03 35° WSW visible
29 Jan 6.7 12:10:12 10° NNE 12:13:50 72° E 12:15:01 40° S visible
30 Jan 8.5 11:41:18 10° NE 11:44:30 29° E 11:46:04 21° SE visible
30 Jan 8.0 13:14:54 10° NNW 13:17:26 18° WNW 13:19:57 10° WSW visible
